TimeEDT,TemperatureF,Dew PointF,Humidity,Sea Level PressureIn,VisibilityMPH,Wind Direction,Wind SpeedMPH,Gust SpeedMPH,PrecipitationIn,Events,Conditions,WindDirDegrees,DateUTC
12:15 AM,51.8,46.4,82,30.26,10.0,NNE,10.4,-,N/A,,Scattered Clouds,30,2013-05-04 04:15:00
12:35 AM,51.8,46.4,82,30.25,10.0,NNE,8.1,-,N/A,,Scattered Clouds,30,2013-05-04 04:35:00
12:55 AM,51.8,46.4,82,30.24,10.0,NNE,8.1,-,N/A,,Mostly Cloudy,30,2013-05-04 04:55:00
1:15 AM,51.8,46.4,82,30.23,10.0,NNE,8.1,-,N/A,,Mostly Cloudy,30,2013-05-04 05:15:00
1:35 AM,51.8,46.4,82,30.22,10.0,NNE,10.4,16.1,N/A,,Overcast,30,2013-05-04 05:35:00
1:55 AM,51.8,46.4,82,30.21,10.0,NNE,10.4,-,N/A,,Overcast,30,2013-05-04 05:55:00
2:15 AM,53.6,46.4,77,30.21,10.0,NNE,11.5,-,N/A,,Overcast,30,2013-05-04 06:15:00
2:55 AM,51.8,48.2,88,30.20,10.0,Calm,Calm,-,N/A,,Overcast,0,2013-05-04 06:55:00
3:15 AM,53.6,48.2,82,30.20,10.0,NNE,9.2,-,N/A,,Overcast,30,2013-05-04 07:15:00
3:35 AM,53.6,48.2,82,30.20,10.0,NE,10.4,-,N/A,,Overcast,40,2013-05-04 07:35:00
3:55 AM,51.8,48.2,88,30.20,10.0,NE,9.2,17.3,N/A,,Overcast,40,2013-05-04 07:55:00
4:15 AM,51.8,48.2,88,30.20,10.0,NNE,10.4,-,N/A,,Overcast,30,2013-05-04 08:15:00
4:35 AM,51.8,48.2,88,30.20,10.0,ENE,12.7,-,N/A,,Overcast,60,2013-05-04 08:35:00
4:55 AM,51.8,48.2,88,30.20,10.0,NNE,10.4,-,N/A,,Overcast,30,2013-05-04 08:55:00
5:15 AM,51.8,48.2,88,30.21,10.0,NNE,6.9,-,N/A,,Overcast,20,2013-05-04 09:15:00
5:35 AM,51.8,50.0,94,30.21,4.0,NNE,5.8,-,N/A,,Overcast,20,2013-05-04 09:35:00
5:55 AM,51.8,51.8,100,30.21,7.0,NNE,8.1,-,N/A,,Overcast,30,2013-05-04 09:55:00
6:15 AM,53.6,51.8,94,30.21,10.0,NNE,9.2,-,N/A,,Overcast,30,2013-05-04 10:15:00
6:35 AM,53.6,50.0,88,30.21,10.0,NNE,6.9,16.1,N/A,,Overcast,30,2013-05-04 10:35:00
6:55 AM,53.6,50.0,88,30.21,10.0,NNE,10.4,-,N/A,,Overcast,30,2013-05-04 10:55:00
7:15 AM,53.6,50.0,88,30.21,10.0,NNE,10.4,17.3,N/A,,Overcast,30,2013-05-04 11:15:00
7:35 AM,53.6,50.0,88,30.21,10.0,NNE,10.4,16.1,N/A,,Overcast,20,2013-05-04 11:35:00
7:55 AM,53.6,51.8,94,30.21,4.0,NE,12.7,-,N/A,,Overcast,40,2013-05-04 11:55:00
8:15 AM,53.6,51.8,94,30.21,10.0,NE,10.4,17.3,N/A,,Overcast,40,2013-05-04 12:15:00
8:35 AM,53.6,51.8,94,30.22,5.0,NE,11.5,17.3,N/A,,Overcast,40,2013-05-04 12:35:00
8:55 AM,53.6,51.8,94,30.22,5.0,NE,13.8,18.4,N/A,,Overcast,40,2013-05-04 12:55:00
9:15 AM,53.6,51.8,94,30.22,1.8,NNE,11.5,16.1,N/A,,Overcast,30,2013-05-04 13:15:00
9:35 AM,53.6,51.8,94,30.22,2.5,NNE,10.4,17.3,N/A,,Overcast,30,2013-05-04 13:35:00
9:55 AM,53.6,51.8,94,30.22,4.0,NNE,11.5,17.3,N/A,,Overcast,30,2013-05-04 13:55:00
10:15 AM,53.6,51.8,94,30.22,10.0,NE,16.1,20.7,N/A,,Overcast,40,2013-05-04 14:15:00
10:35 AM,53.6,51.8,94,30.22,4.0,NNE,11.5,19.6,N/A,,Overcast,30,2013-05-04 14:35:00
10:55 AM,53.6,51.8,94,30.22,4.0,NNE,11.5,20.7,N/A,,Overcast,30,2013-05-04 14:55:00
11:15 AM,53.6,53.6,100,30.22,3.0,NNE,8.1,-,N/A,,Overcast,20,2013-05-04 15:15:00
11:35 AM,53.6,51.8,94,30.21,10.0,NE,13.8,23.0,N/A,,Overcast,40,2013-05-04 15:35:00
11:55 AM,53.6,51.8,94,30.20,7.0,NNE,12.7,18.4,N/A,,Overcast,20,2013-05-04 15:55:00
12:15 PM,55.4,51.8,88,30.20,10.0,NNE,12.7,16.1,N/A,,Overcast,20,2013-05-04 16:15:00
12:35 PM,57.2,51.8,82,30.19,10.0,NNE,3.5,17.3,N/A,,Overcast,20,2013-05-04 16:35:00
12:55 PM,57.2,51.8,82,30.19,10.0,NNE,10.4,16.1,N/A,,Overcast,30,2013-05-04 16:55:00
1:15 PM,59.0,51.8,77,30.19,10.0,NNE,8.1,16.1,N/A,,Overcast,20,2013-05-04 17:15:00
1:35 PM,60.8,50.0,68,30.19,10.0,NNE,10.4,13.8,N/A,,Overcast,30,2013-05-04 17:35:00
1:55 PM,60.8,50.0,68,30.18,10.0,NNE,17.3,21.9,N/A,,Overcast,30,2013-05-04 17:55:00
2:15 PM,60.8,50.0,68,30.18,10.0,NNE,11.5,18.4,N/A,,Overcast,20,2013-05-04 18:15:00
2:35 PM,60.8,50.0,68,30.18,10.0,NE,16.1,20.7,N/A,,Overcast,40,2013-05-04 18:35:00
2:55 PM,62.6,50.0,63,30.18,10.0,NE,13.8,19.6,N/A,,Overcast,40,2013-05-04 18:55:00
3:15 PM,62.6,50.0,63,30.17,10.0,NE,12.7,19.6,N/A,,Overcast,40,2013-05-04 19:15:00
3:35 PM,62.6,50.0,63,30.17,10.0,NE,16.1,21.9,N/A,,Overcast,40,2013-05-04 19:35:00
3:55 PM,62.6,51.8,68,30.17,10.0,NE,13.8,20.7,N/A,,Overcast,40,2013-05-04 19:55:00
4:15 PM,62.6,51.8,68,30.16,10.0,NE,15.0,-,N/A,,Overcast,40,2013-05-04 20:15:00
4:35 PM,60.8,50.0,68,30.16,10.0,NE,16.1,-,N/A,,Overcast,40,2013-05-04 20:35:00
4:55 PM,60.8,51.8,72,30.16,10.0,NE,16.1,19.6,N/A,,Mostly Cloudy,40,2013-05-04 20:55:00
5:15 PM,60.8,50.0,68,30.16,10.0,NE,16.1,-,N/A,,Mostly Cloudy,50,2013-05-04 21:15:00
5:35 PM,60.8,50.0,68,30.16,10.0,NE,11.5,20.7,N/A,,Mostly Cloudy,40,2013-05-04 21:35:00
5:55 PM,60.8,48.2,63,30.16,10.0,NE,17.3,-,N/A,,Mostly Cloudy,40,2013-05-04 21:55:00
6:15 PM,59.0,48.2,67,30.16,10.0,NE,12.7,-,N/A,,Scattered Clouds,40,2013-05-04 22:15:00
6:35 PM,57.2,48.2,72,30.16,10.0,NNE,10.4,-,N/A,,Scattered Clouds,30,2013-05-04 22:35:00
6:55 PM,57.2,48.2,72,30.16,10.0,NE,12.7,16.1,N/A,,Clear,40,2013-05-04 22:55:00
7:15 PM,57.2,48.2,72,30.16,10.0,NE,11.5,-,N/A,,Clear,40,2013-05-04 23:15:00
7:35 PM,55.4,48.2,77,30.16,10.0,NE,13.8,21.9,N/A,,Clear,40,2013-05-04 23:35:00
7:55 PM,55.4,48.2,77,30.16,10.0,NNE,9.2,-,N/A,,Clear,30,2013-05-04 23:55:00
8:15 PM,53.6,46.4,77,30.16,10.0,NNE,9.2,-,N/A,,Clear,30,2013-05-05 00:15:00
8:35 PM,53.6,46.4,77,30.17,10.0,NNE,9.2,18.4,N/A,,Clear,30,2013-05-05 00:35:00
8:55 PM,53.6,46.4,77,30.18,10.0,NNE,8.1,-,N/A,,Clear,30,2013-05-05 00:55:00
9:15 PM,53.6,46.4,77,30.18,10.0,NNE,6.9,-,N/A,,Clear,20,2013-05-05 01:15:00
9:35 PM,51.8,46.4,82,30.18,10.0,NNE,9.2,-,N/A,,Clear,30,2013-05-05 01:35:00
9:55 PM,51.8,46.4,82,30.18,10.0,NE,8.1,-,N/A,,Clear,40,2013-05-05 01:55:00
10:15 PM,51.8,46.4,82,30.18,10.0,NNE,5.8,-,N/A,,Clear,20,2013-05-05 02:15:00
10:35 PM,51.8,46.4,82,30.18,10.0,NNE,3.5,-,N/A,,Clear,20,2013-05-05 02:35:00
10:55 PM,51.8,46.4,82,30.18,10.0,NNE,3.5,-,N/A,,Clear,20,2013-05-05 02:55:00
11:15 PM,51.8,46.4,82,30.17,10.0,NNE,4.6,-,N/A,,Clear,20,2013-05-05 03:15:00
11:35 PM,51.8,46.4,82,30.16,10.0,NNE,4.6,-,N/A,,Clear,20,2013-05-05 03:35:00
11:55 PM,51.8,46.4,82,30.16,7.0,Calm,Calm,-,N/A,,Clear,0,2013-05-05 03:55:00